RH
97 98 98 97 98 96 96 96 93 93 92 93 93 94 94 96 96 96 97 97 96 96
98 98 98 96 92 91 92 92 94 88 86 88 90 94 91 96 95 97 97 97 96 96
72 76 82 88 97 96 95 93 94 93 94 96 96 95 96 98 97 98 97 97 98 96
72 69 70 72 75 85 89 92 94 94 97 98 99 99 99 99 98 98 98 96 96 95
72 74 76 74 74 78 86 89 90 90 92 93 96 96 97 95 95 97 95 95 95 94
76 80 81 80 76 75 80 87 88 88 90 92 90 88 87 86 86 87 89 88 91 90
75 77 83 82 82 79 79 83 86 87 87 86 84 84 79 78 81 82 83 84 84 83
79 78 79 84 85 84 82 81 82 82 83 84 80 79 83 81 78 79 80 83 82 83
80 82 86 86 89 89 88 88 87 86 85 85 78 78 81 78 75 76 77 81 82 81
83 85 88 89 91 91 92 90 90 89 88 88 87 80 80 82 84 88 89 89 90 90
86 89 88 91 92 93 94 94 93 92 91 91 87 83 82 82 90 92 93 91 91 92
86 88 90 91 93 93 95 94 92 89 89 90 88 85 86 86 94 99 97 93 92 92
83 87 90 91 92 91 83 88 92 93 95 91 89 85 88 86 89 92 93 91 91 89
77 82 83 89 91 83 83 93 94 95 94 92 87 84 89 90 90 86 88 91 90 86
Wind_Speed
7 3 3 4 3 5 6 6 6 8 10 11 11 9 8 6 7 8 7 9 7 6
5 5 5 9 8 7 7 6 11 13 12 13 11 9 11 9 10 7 9 10 9 5
5 4 3 3 5 6 6 7 9 10 9 8 9 10 11 9 9 10 8 7 8 5
6 6 4 2 3 2 1 1 2 2 4 5 4 4 6 5 5 7 6 4 7 7
7 5 5 5 5 5 4 1 1 1 2 3 4 4 4 4 3 5 5 5 5 5
6 5 5 4 5 5 5 4 3 2 3 3 4 4 5 6 7 8 9 9 8 7
6 5 5 5 6 6 5 5 5 2 3 3 4 5 5 5 5 4 5 7 8 9
6 6 6 6 6 6 6 5 5 4 3 3 4 4 5 5 6 7 7 7 6 6
6 6 6 6 6 5 5 6 5 5 4 4 3 7 7 6 5 5 5 6 5 5
6 7 7 6 7 7 7 6 7 6 5 6 6 8 8 8 5 6 6 7 6 5
5 5 6 6 6 6 5 6 6 6 6 6 5 9 10 10 5 5 6 7 8 8
5 4 4 5 6 6 5 6 6 5 6 6 7 10 12 9 6 5 7 6 7 8
3 5 5 4 5 4 6 7 6 8 6 8 8 10 12 12 6 7 7 6 6 13
2 4 3 4 3 8 6 5 6 8 7 7 7 9 13 16 8 8 7 7 7 7
Wind_Direction
39 20 21 275 196 200 201 200 221 219 220 224 222 220 212 206 217 196 206 217 209 207
189 184 233 228 223 223 211 192 207 230 229 227 225 214 220 222 228 204 209 213 211 198
107 121 186 251 251 219 232 227 226 226 218 216 214 215 213 215 214 203 211 197 193 177
53 34 13 6 25 43 120 101 237 261 238 228 210 205 212 205 183 193 192 171 183 187
50 32 28 26 23 15 9 353 244 215 205 198 190 189 186 177 185 195 186 189 175 173
27 20 24 16 14 10 359 342 329 242 205 212 214 204 196 185 185 182 185 184 187 188
19 9 12 3 360 1 347 345 327 297 243 220 216 210 201 191 197 203 200 192 184 182
13 8 6 357 352 346 341 330 313 294 274 219 208 219 218 213 202 194 187 188 187 190
15 5 5 353 343 331 317 312 309 303 302 273 249 232 219 189 194 195 191 190 180 176
8 357 349 347 350 343 318 304 298 288 275 261 255 261 239 216 195 196 193 191 184 180
11 352 330 340 345 336 326 306 288 282 270 265 263 252 241 233 216 223 218 203 193 181
329 326 339 329 332 323 317 322 311 286 274 257 265 253 237 218 204 213 229 221 197 188
332 310 316 309 302 277 318 311 309 296 267 253 256 251 242 217 209 217 216 212 219 213
304 317 332 341 334 315 299 287 296 298 291 278 267 269 244 230 215 222 228 221 218 218